Regional Weather Roundup
Issued by NWS Cleveland, OH

Home | Current Version | Previous Version | Text Only | Print | Product List | Glossary Off
Versions: 1 2 3 4 5 6 7 8 9 10 11 12 13 14 15 16 17 18 19 20 21 22 23 24 25 26 27 28 29 30 31 32 33 34 35 36 37 38 39 40 41 42 43 44 45 46 47 48 49 50

000
ASUS41 KCLE 010000
RWRCLE
OHIO REGIONAL WEATHER ROUNDUP
NATIONAL WEATHER SERVICE WILMINGTON, OH
800 PM EDT WED AUG 31 2016

NOTE: "FAIR" INDICATES FEW OR NO CLOUDS BELOW 12,000 FEET WITH NO
SIGNIFICANT WEATHER AND/OR OBSTRUCTIONS TO VISIBILITY.

OHZ001>008-015>018-024>027-034-035-043-044-010100-
   NORTHWEST OHIO

CITY           SKY/WX    TMP DP  RH WIND       PRES   REMARKS
DEFIANCE       CLOUDY    75  63  66 N12       29.98R
FINDLAY        FAIR      77  65  66 NE13      29.96R
TOLEDO EXPRESS FAIR      72  62  71 N6        29.98R
TOLEDO EXEC    CLOUDY    76  64  66 N7        29.98R
LIMA           MOCLDY    73  71  93 N9        29.96R
$$

OHZ009>014-019>023-028>033-038-089-010100-
   NORTHEAST OHIO

CITY           SKY/WX    TMP DP  RH WIND       PRES   REMARKS
CLE-HOPKINS    MOCLDY    76  62  62 N16       29.98R
CLE-LAKEFRONT  FAIR      75  59  57 N16       29.95R
CUY CO. ARPT   MOCLDY    75  64  69 N13       29.97R
LORAIN-ELYRIA  MOCLDY    73  63  70 NE12      29.98R
ASHTABULA      CLOUDY    71  65  81 N5        29.96S
AKRON-CANTON   CLOUDY    71  68  90 NE7       29.97R FOG
WOOSTER        NOT AVBL
MANSFIELD      FAIR      74  68  81 N8        29.97R
YOUNGSTOWN     CLOUDY    70  68  93 CALM      29.96R FOG
$$

OHZ042-051>053-060>062-070>072-077>081-010100-
  SOUTHWEST OHIO

CITY           SKY/WX    TMP DP  RH WIND       PRES   REMARKS
CINC-COVINGTON CLOUDY    75  71  87 VRB3      29.96R
CINC-LUNKEN    FAIR      76  70  82 SE5       29.95R
HAMILTON       FAIR      73  70  90 CALM      29.95S
DAYTON         NOT AVBL
WRIGHT-PAT AFB FAIR      78  69  73 N5        29.94S
DAYTON GENERAL FAIR      73  71  93 W3        29.95S
WILMINGTON     LGT RAIN  74  72  93 NW5       29.96R
$$

OHZ036-037-039>041-045>050-054>059-063>069-073>076-082>088-010100-
  CENTRAL AND SOUTHEAST OHIO

CITY           SKY/WX    TMP DP  RH WIND       PRES   REMARKS
COLUMBUS       CLOUDY    75  71  87 SE3       29.93S
OSU AIRPORT    FAIR      76  68  76 N3        29.94S
BOLTON FIELD   NOT AVBL
RICKENBACK AFB NOT AVBL
NEWARK         FAIR      73  71  93 CALM      29.94S
MARION         MOCLDY    75  66  73 N10       29.96R
LANCASTER      MOCLDY    74  72  93 CALM      29.93F
ZANESVILLE     MOCLDY    72  68  87 CALM      29.94S
NEW PHILLY     LGT RAIN  73  69  87 CALM      29.95S FOG
$$




USA.gov is the U.S. government's official web portal to all federal, state and local government web resources and services.